Home > Weather > Faridkot > Past weeks

Flag for India Weather for the Past 2 Weeks in Faridkot, Punjab, India

Now
52 °F

Fog.


Feels Like: 51 °F
Forecast: 47 / 75 °F
Wind: 3 mph from Northeast

Location: Lahore Airport

Current Time: Feb 10, 2016 at 4:57:34 AM

Latest Report: Feb 10, 2016 at 4:25 AM


Visibility: 0 mi

Pressure: 29.92 "Hg

Humidity: 77%

Dew point: 45 °F

Location of FaridkotLocation

Historic Weather in Faridkot — Graph

°F

Faridkot Temperature Yesterday

Maximum temperature yesterday: 72 °F (at 2:55 PM)
Minimum temperature yesterday: 46 °F (at 7:30 AM)
Average temperature yesterday: 60 °F

High & Low Weather Summary for the Past Weeks

 TemperatureHumidityPressure
High75 °F (Feb 5, 2:25 PM)100% (Jan 26, 2:55 AM)30.15 "Hg (Jan 26, 2:55 AM)
Low41 °F (Jan 26, 5:25 AM)25% (Feb 4, 4:00 PM)29.74 "Hg (Jan 26, 12:30 PM)
Average59 °F66%30.03 "Hg
* Reported Jan 26 2:55 AM — Feb 10 3:00 AM, Faridkot, Weather by CustomWeather, © 2016

Note: Actual official high and low records may vary slightly from our data, if they occured in-between our weather recording intervals... More about our weather records

Advertising

Faridkot Weather History for the Previous 24 Hours

 ConditionsComfort  
Time TempWeatherWind HumidityBarometerVisibility
3:00 AM
Wed, Feb 10
54 °FClear.No wind72%29.92 "Hg2 mi
2:30 AM55 °FClear.No wind67%29.92 "Hg2 mi
2:00 AM55 °FClear.No wind67%29.92 "Hg2 mi
1:30 AM57 °FClear.No wind67%29.95 "Hg2 mi
1:00 AM57 °FClear.No wind67%29.95 "Hg2 mi
12:30 AM59 °FClear.No wind68%29.95 "Hg2 mi
12:00 AM61 °FPassing clouds.No wind63%29.95 "Hg2 mi
11:30 PM
Tue, Feb 9
61 °FPassing clouds.No wind63%29.95 "Hg2 mi
11:00 PM61 °FClear.No wind59%29.95 "Hg2 mi
10:30 PM63 °FClear.No wind56%29.95 "Hg2 mi
9:00 PM64 °FHaze.No wind49%29.95 "Hg2 mi
8:25 PM64 °FHaze.No wind49%29.95 "Hg2 mi
7:55 PM66 °FHaze.No wind46%29.95 "Hg2 mi
7:25 PM66 °FHaze.No wind46%29.95 "Hg2 mi
6:55 PM68 °FHaze.No wind43%29.95 "Hg2 mi
6:25 PM68 °FHaze.3 mph43%29.95 "Hg2 mi
5:55 PM70 °FHaze.5 mph43%29.95 "Hg2 mi
5:25 PM70 °FHaze.3 mph43%29.95 "Hg2 mi
4:55 PM72 °FHaze.3 mph41%29.95 "Hg2 mi
3:25 PM72 °FHaze.6 mph41%29.95 "Hg2 mi
2:55 PM72 °FHaze.No wind41%29.98 "Hg1 mi
2:25 PM70 °FHaze.3 mph43%29.98 "Hg1 mi
1:25 PM66 °FClear.5 mph49%30.01 "Hg1 mi
12:55 PM64 °FClear.5 mph52%30.04 "Hg1 mi
12:25 PM64 °FClear.5 mph52%30.04 "Hg1 mi
11:25 AM61 °FClear.6 mph59%30.07 "Hg1 mi
10:55 AM59 °FClear.5 mph63%30.07 "Hg1 mi
10:25 AM57 °FClear.6 mph67%30.07 "Hg1 mi
9:55 AM54 °FClear.No wind77%30.04 "Hg1 mi
9:25 AM52 °FFog.No wind82%30.04 "Hg1 mi
8:55 AM50 °FFog.No wind88%30.04 "Hg1 mi
8:29 AM48 °FFog.No wind94%30.04 "Hg1 mi
8:00 AM46 °FFog.No wind93%30.04 "Hg0 mi
7:30 AM46 °FFog.No wind87%30.01 "Hg1 mi
5:25 AM50 °FFog.No wind82%30.01 "Hg1 mi
5:00 AM52 °FFog.No wind82%30.01 "Hg1 mi
4:30 AM52 °FFog.No wind82%30.01 "Hg1 mi
4:00 AM54 °FFog.No wind82%30.01 "Hg1 mi
Weather by CustomWeather, © 2016

See weather overviewHow to use our weather pages